Tracking 29932 objects as of 3-Dec-2024
HD Live streaming from Space Station
objects crossing your sky now

STARLINK-30104

Track STARLINK-30104 now!
10-day predictions
STARLINK-30104 is classified as:


NORAD ID: 56300
Int'l Code: 2023-056Q
Perigee: 565.7 km
Apogee: 566.8 km
Inclination: 43.0 °
Period: 95.8 minutes
Semi major axis: 6937 km
RCS: Unknown
Launch date: April 19, 2023
Source: United States (US)
Launch site: AIR FORCE EASTERN TEST RANGE (AFETR)
Your satellite tracking list
Your tracking list is empty




NASA's NSSDC Master Catalog

Two Line Element Set (TLE):
1 56300U 23056Q   24338.30166171  .00002011  00000-0  16391-3 0  9992
2 56300  43.0017 196.9589 0000786 279.7520  80.3234 15.02532276 90687
Source of the keplerian elements: AFSPC